Regional Weather Roundup
Issued by NWS Upton, NY

Current Version | Previous Version | Graphics & Text | Print | Product List | Glossary Off
Versions: 1 2 3 4 5 6 7 8 9 10 11 12 13 14 15 16 17 18 19 20 21 22 23 24 25 26 27 28 29 30 31 32 33 34 35 36 37 38 39 40 41 42 43 44 45 46 47 48 49 50

000
ASUS41 KOKX 250505
RWROKX

Regional Weather Roundup
National Weather Service New York NY
100 AM EDT WED APR 25 2018

Note: "FAIR" indicates few or no clouds below 12,000 feet with no
significant weather and/or obstructions to visibility.

NYZ071-072-176-178-NJZ106-104-250600-
New York City Metro Area

CITY           SKY/WX    TMP DP  RH WIND       PRES   REMARKS
Central Park   LGT RAIN  55  52  89 CALM      30.15F
Bronx Bot Gard   N/A     52  48  87 NE3       30.13F
Bronx Lehman C   N/A     54  48  82 E7          N/A
LaGuardia Arpt LGT RAIN  56  51  84 SE10      30.12F
Queens College   N/A     54  52  94 E12         N/A
Kennedy Intl   LGT RAIN  52  51  97 E14       30.13F
Breezy Point     N/A     50 N/A N/A E12G17      N/A
Brooklyn Coll    N/A     54  50  87 E10         N/A
Staten Island    N/A     52  50  93 E12         N/A
Newark/Liberty LGT RAIN  54  52  93 E12       30.12F
Teterboro      LGT RAIN  52  48  86 N9        30.12F FOG
$$

NYZ177-179-078>081-250600-
Long Island New York

CITY           SKY/WX    TMP DP  RH WIND       PRES   REMARKS
Jones Beach      N/A     50 N/A N/A E12G20      N/A
Wantagh          N/A     54  50  87 E14         N/A
Hempstead        N/A     54  50  87 E12       30.16F
Matinecock Pt    N/A     48 N/A N/A E15         N/A
Farmingdale    CLOUDY    54  50  86 SE14      30.14F
MacArthur/ISP  CLOUDY    54  50  86 E14G23    30.14F
Stony Brook      N/A     55  50  82 SE10        N/A
Shirley        CLOUDY    53  50  89 SE8       30.16F
Mt Sinai Harb    N/A    N/A N/A N/A SE12        N/A
Westhampton    FAIR      51  46  83 E10G20    30.17F
East Hampton   FAIR      48  44  85 SE8       30.18F
Southold         N/A     52  46  82 E7          N/A
Montauk          N/A     51  45  79 E8G16     30.20F
$$

NYZ052-065-067-250600-
Hudson Valley

CITY           SKY/WX    TMP DP  RH WIND       PRES   REMARKS
White Plains   LGT RAIN  52  45  77 E7        30.13F
Larchmont Harb   N/A     50 N/A N/A NE16        N/A
Croton On Huds   N/A     50 N/A N/A MISG        N/A
Somers           N/A     48  43  81 E3          N/A
Brewster         N/A     48  43  81 NE3         N/A
Newburgh       LGT RAIN  48  46  93 E9        30.16F
Montgomery     LGT RAIN  49  45  86 NE6       30.14F
Otisville        N/A     46  46 100 NE3         N/A
Warwick          N/A     48  48 100 E3          N/A
Suffern          N/A     46  46 100 NE2         N/A
Poughkeepsie   LGT RAIN  49  45  86 CALM      30.15F
Albany         LGT RAIN  54  43  66 S6        30.17F
$$

NJZ001-105-106-008-010-013-015-019>022-104-250600-
New Jersey

CITY           SKY/WX    TMP DP  RH WIND       PRES   REMARKS
Newark/Liberty LGT RAIN  54  52  93 E12       30.12F
Teterboro      LGT RAIN  52  48  86 N9        30.12F FOG
Caldwell       LGT RAIN  50  49  96 E8        30.13F
Somerville     LGT RAIN  52  52 100 E6        30.07F
Linden         LGT RAIN  53  49  89 SE8       30.13F
Perth Amboy      N/A     50 N/A N/A E12         N/A
Sussex         LGT RAIN  50  47  89 NE6       30.13F
Andover          N/A     50  48  93 CALM      30.11F
Trenton        RAIN      53  52  96 E8        30.06F FOG
Millville      RAIN      54  53  97 E15       30.01F FOG
Atlantic City  RAIN      54  54 100 E14G22    30.04F FOG
Wrightstown    NOT AVBL
Toms River     RAIN      53  52  96 SE10      30.08F FOG
Belmar         CLOUDY    53  51  93 E16       30.10F
$$

PAZ047>061-062-071-250600-
Eastern Pennsylvania

CITY           SKY/WX    TMP DP  RH WIND       PRES   REMARKS
Philadelphia   CLOUDY    53  52  96 E13       30.04F
Allentown      LGT RAIN  52  48  86 E10       30.07F FOG
Scranton       LGT RAIN  50  47  89 NE7       30.07F
$$

CTZ002-004>006-009-010-012-RIZ004-006-007-MAZ004-011-015-250600-
Southern New England

 In CT

CITY           SKY/WX    TMP DP  RH WIND       PRES   REMARKS
Bradley Intl   CLOUDY    53  37  54 E3        30.20F
Hartford       MOCLDY    53  38  56 CALM      30.20F
Danbury        CLOUDY    51  44  77 E6        30.17F
Wtrbury/Oxford CLOUDY    52  41  66 E9        30.18F
Norwalk Harbor   N/A     48 N/A N/A NE17        N/A
Bridgeport     CLOUDY    51  43  74 E13       30.17F
Meriden        CLOUDY    54  38  54 SE3       30.19F
New Haven      CLOUDY    53  44  71 E12       30.18F
Chester        MOCLDY    52  43  71 E5        30.19F
Groton         CLOUDY    50  45  83 E10       30.20F
Willimantic    FAIR      52  38  58 CALM      30.22F

 In RI

CITY           SKY/WX    TMP DP  RH WIND       PRES   REMARKS
Providence     MOCLDY    49  42  77 CALM      30.24F
Block Island   FAIR      48  45  89 SE9       30.22F
Westerly       CLOUDY    51  45  79 E9        30.22F

In MA

CITY           SKY/WX    TMP DP  RH WIND       PRES   REMARKS
Boston         CLOUDY    52  35  52 S6        30.25F
Worcester      MOCLDY    48  35  60 S6        30.22F
Westfield      CLOUDY    53  36  52 SE3       30.20F
Provincetown   FAIR      48  38  68 S6        30.27F
Nantucket      MOCLDY    48  47  96 SE14      30.25F
$$

ANZ330-335-338-340-345-350-353-355-250600-
Coastal Marine Observations


STATION/POSITION TIME  SKY/WX   TEMP    WIND        PRES    VSBY  WAVE
                                AIR SEA DIR/SP/G                  HT/PER
                 (UTC)          (F)     (DEG/KT/KT) (MB)    (MI)  (FT/S)
NY Harb Entrance 0450            49 47  100/ 14/ 16 1019.7          3/ 7
20 S Fire Island 0450            49 45  110/ 14/ 16 1019.9          4/ 7
23 SSW Montauk P 0450            48 45  130/ 16/ 17 1021.7          3/ 6
15 E Barnegat Li 0430               46                N/A           5/ 7
Hudson Canyon    0450            50 45  120/ 10/ 12 1019.8          5/ 7
Kings Point      0448            54 47  170/  6/ 10 1021.4
Execution Rocks  NOT AVBL
Western LI Sound NOT AVBL
Central LI Sound 0445            47      60/ 10/ 10   N/A           0
Robbins Reef     0448            54     110/ 18/ 23 1020.5
$$


>>>>>>>>>>>>>>>>>>>>>>>>>>>> KEY <<<<<<<<<<<<<<<<<<<<<<<<<<<
>                                                          <
>     SKY/WX - Sky Condition/Present Weather               <
>     TMP    - Temperature in Fahrenheit                   <
>     DP     - Dew Point in Fahrenheit                     <
>     RH     - Relative Humidity in Percent                <
>     WIND   - Direction (from) and Speed in MPH           <
>     PRES   - Mean Sea Level Pressure (inches of Hg)      <
>     WCI    - Wind Chill Index                            <
>     VSB    - Visibility in Miles                         <
>     HX     - Heat Index                                  <
>     TC     - Temperature in Celsius                      <
>     VRB    - Varibale Wind Direction                     <
>                                                          <
>>>>>>>>>>>>>>>>>>>>>>>>>>>> KEY <<<<<<<<<<<<<<<<<<<<<<<<<<<



USA.gov is the U.S. government's official web portal to all federal, state and local government web resources and services.